This demonstration page uses our WeatherBlox Daily Observations layout. Learn more.

Left ArrowRight Arrow

Hourly Observations for May 17, 2018

Temp ( °F °C ) Dew Point ( °F °C ) Humidity (%) Winds ( mph kmh ) Pressure ( in mb ) Visibility ( mi km ) Precip ( " mm )
12:53 am 00:53 Clear 66 18.9 54 12.2 65 65 SE 8 13 29.94 1014 10 16 0.00 0.00
1:53 am 01:53 Clear 67 19.4 54 12.2 63 63 SSE 7 11 29.94 1014 10 16 0.00 0.00
2:53 am 02:53 Clear 66 18.9 54 12.2 65 65 SSE 7 11 29.93 1014 10 16 0.00 0.00
3:53 am 03:53 Clear 63 17.2 56 13.3 78 78 SE 8 13 29.93 1014 10 16 0.00 0.00
4:53 am 04:53 Clear 61 16.1 56 13.3 84 84 SSE 6 9 29.93 1014 10 16 0.00 0.00
5:53 am 05:53 Clear 61 16.1 55 12.8 81 81 S 5 7 29.95 1014 10 16 0.00 0.00
6:53 am 06:53 Sunny 62 16.7 55 12.8 78 78 SSE 5 7 29.95 1014 10 16 0.00 0.00
7:53 am 07:53 Sunny 65 18.3 56 13.3 73 73 SSE 6 9 29.96 1015 10 16 0.00 0.00
8:53 am 08:53 Sunny 69 20.6 57 13.9 66 66 ESE 5 7 29.97 1015 10 16 0.00 0.00
9:53 am 09:53 Partly Cloudy 71 21.7 60 15.6 68 68 SE 7 11 29.96 1015 10 16 0.00 0.00
10:53 am 10:53 Mostly Cloudy 78 25.6 60 15.6 54 54 SSE 8 13 29.94 1014 10 16 0.00 0.00
11:53 am 11:53 Sunny 81 27.2 56 13.3 42 42 SE 10 17 29.92 1013 10 16 0.00 0.00
12:53 pm 12:53 Sunny 83 28.3 57 13.9 41 41 SE 12 19 29.91 1013 10 16 0.00 0.00
1:53 pm 13:53 Mostly Sunny 84 28.9 56 13.3 38 38 SSE 13 20 29.88 1012 10 16 0.00 0.00
2:53 pm 14:53 Partly Cloudy 85 29.4 55 12.8 36 36 SE 13 20 29.86 1011 10 16 0.00 0.00
3:53 pm 15:53 Partly Cloudy 85 29.4 56 13.3 37 37 ESE 10 17 29.85 1011 10 16 0.00 0.00
4:53 pm 16:53 Partly Cloudy 86 30 54 12.2 33 33 SE 15 24 29.83 1010 10 16 0.00 0.00
5:53 pm 17:53 Mostly Cloudy 85 29.4 54 12.2 35 35 ESE 17 28 29.82 1010 10 16 0.00 0.00
6:53 pm 18:53 Mostly Sunny 83 28.3 52 11.1 34 34 SSE 14 22 29.81 1009 10 16 0.00 0.00
7:53 pm 19:53 Sunny 81 27.2 51 10.6 35 35 SSE 12 19 29.80 1009 10 16 0.00 0.00
8:53 pm 20:53 Clear 77 25 49 9.4 37 37 SE 13 20 29.78 1009 10 16 0.00 0.00
9:53 pm 21:53 Clear 74 23.3 50 10 43 43 SE 13 20 29.80 1009 10 16 0.00 0.00
10:53 pm 22:53 Clear 72 22.2 53 11.7 52 52 SE 13 20 29.81 1010 10 16 0.00 0.00
11:53 pm 23:53 Clear 70 21.1 55 12.8 59 59 SE 13 20 29.83 1010 10 16 0.00 0.00

Powered by AerisWeather